Retour au catalogue

STARLINK-5151

ActifCommunicationsVLEO
NORAD 54066·PAYLOAD·🇺🇸 United States

Lancé Oct 20, 2022 depuis Cape Canaveral Space Force Station

Loading…

Prochains Passages (prochaines 24 heures)

TLE

FraisSource: CelesTrak SupGP

Époque: Sep 15, 2026, 01:26 UTC

1 54066C 22136R   26258.06020833  .00328250  00000+0  15459-1 0  2582
2 54066  53.1593 213.5554 0001429  88.1364 264.8280 15.18848040    10

Suivez STARLINK-5151 en temps réel avec AllMySat

Download on the App Store